Hourly Weather Champa

Today, 15 June, Tuesday

Time Temperature Precipitation Wind Pressure Humidity
00:00 +28°C° 0 mm 1 mps 727 mmHg 78%
01:00 +28°C° 0.2 mm 1 mps 726 mmHg 79%
02:00 +28°C° 0.2 mm 1 mps 725 mmHg 80%
03:00 +28°C° 0.2 mm 1 mps 725 mmHg 81%
04:00 +28°C° 0 mm 2 mps 725 mmHg 80%
05:00 +28°C° 0 mm 2 mps 725 mmHg 79%
06:00 +28°C° 0 mm 2 mps 725 mmHg 79%
07:00 +29°C° 0 mm 4 mps 726 mmHg 71%
08:00 +32°C° 0 mm 5 mps 726 mmHg 64%
09:00 +33°C° 0 mm 6 mps 727 mmHg 57%
10:00 +34°C° 0 mm 6 mps 727 mmHg 52%
11:00 +36°C° 0 mm 6 mps 727 mmHg 47%
12:00 +37°C° 0 mm 5 mps 726 mmHg 43%
13:00 +38°C° 0.1 mm 6 mps 726 mmHg 43%
14:00 +39°C° 0.1 mm 6 mps 725 mmHg 43%
15:00 +39°C° 0.1 mm 6 mps 724 mmHg 43%
16:00 +36°C° 0.4 mm 5 mps 724 mmHg 48%
17:00 +35°C° 0.4 mm 4 mps 724 mmHg 52%
18:00 +33°C° 0.4 mm 3 mps 725 mmHg 57%
19:00 +33°C° 1.2 mm 3 mps 725 mmHg 61%
20:00 +31°C° 1.2 mm 3 mps 726 mmHg 65%
21:00 +30°C° 1.2 mm 4 mps 726 mmHg 69%
22:00 +30°C° 0.5 mm 4 mps 726 mmHg 70%
23:00 +30°C° 0.5 mm 4 mps 727 mmHg 70%

Tomorrow, 16 June, Wednesday

Time Temperature Precipitation Wind Pressure Humidity
00:00 +30°C° 0.5 mm 4 mps 727 mmHg 71%
01:00 +30°C° 0.2 mm 3 mps 727 mmHg 71%
02:00 +30°C° 0.2 mm 3 mps 727 mmHg 72%
03:00 +29°C° 0.2 mm 3 mps 726 mmHg 72%
04:00 +29°C° 0 mm 3 mps 727 mmHg 73%
05:00 +29°C° 0 mm 3 mps 727 mmHg 73%
06:00 +29°C° 0 mm 3 mps 727 mmHg 73%
07:00 +30°C° 0 mm 4 mps 727 mmHg 68%
08:00 +32°C° 0 mm 4 mps 728 mmHg 63%
09:00 +34°C° 0 mm 5 mps 729 mmHg 58%
10:00 +35°C° 0 mm 5 mps 728 mmHg 53%
11:00 +37°C° 0 mm 5 mps 728 mmHg 48%
12:00 +39°C° 0 mm 5 mps 728 mmHg 43%
13:00 +37°C° 0.3 mm 5 mps 727 mmHg 47%
14:00 +36°C° 0.3 mm 5 mps 727 mmHg 50%
15:00 +35°C° 0.3 mm 4 mps 726 mmHg 54%
16:00 +33°C° 2.4 mm 4 mps 727 mmHg 61%
17:00 +32°C° 2.4 mm 4 mps 727 mmHg 67%
18:00 +29°C° 2.4 mm 4 mps 727 mmHg 74%
19:00 +29°C° 0.7 mm 4 mps 727 mmHg 75%
20:00 +29°C° 0.7 mm 3 mps 728 mmHg 77%
21:00 +29°C° 0.7 mm 3 mps 729 mmHg 78%
22:00 +29°C° 0.5 mm 2 mps 729 mmHg 78%
23:00 +29°C° 0.5 mm 2 mps 729 mmHg 78%

Day after tomorrow, 17 June, Thursday

Time Temperature Precipitation Wind Pressure Humidity
00:00 +29°C° 0.5 mm 2 mps 729 mmHg 78%
01:00 +29°C° 0.1 mm 2 mps 728 mmHg 77%
02:00 +29°C° 0.1 mm 2 mps 728 mmHg 77%
03:00 +29°C° 0.1 mm 2 mps 728 mmHg 76%
04:00 +29°C° 0 mm 2 mps 727 mmHg 75%
05:00 +29°C° 0 mm 3 mps 727 mmHg 74%
06:00 +29°C° 0 mm 3 mps 727 mmHg 72%
07:00 +30°C° 0 mm 3 mps 728 mmHg 69%
08:00 +31°C° 0 mm 3 mps 728 mmHg 66%
09:00 +32°C° 0 mm 4 mps 729 mmHg 62%
10:00 +34°C° 0 mm 3 mps 729 mmHg 57%
11:00 +35°C° 0 mm 3 mps 728 mmHg 52%
12:00 +36°C° 0 mm 3 mps 728 mmHg 47%
13:00 +37°C° 0.1 mm 4 mps 728 mmHg 46%
14:00 +37°C° 0.1 mm 4 mps 727 mmHg 45%
15:00 +37°C° 0.1 mm 4 mps 727 mmHg 44%
16:00 +35°C° 0.4 mm 5 mps 727 mmHg 52%
17:00 +33°C° 0.4 mm 5 mps 727 mmHg 61%
18:00 +30°C° 0.4 mm 6 mps 727 mmHg 69%
19:00 +30°C° 0.4 mm 5 mps 727 mmHg 72%
20:00 +29°C° 0.4 mm 5 mps 728 mmHg 75%
21:00 +29°C° 0.4 mm 4 mps 728 mmHg 79%
22:00 +28°C° 0.9 mm 4 mps 728 mmHg 79%
23:00 +28°C° 0.9 mm 3 mps 728 mmHg 79%

18 June, Friday

Time Temperature Precipitation Wind Pressure Humidity
00:00 +28°C° 0.9 mm 3 mps 728 mmHg 80%
01:00 +28°C° 1 mm 3 mps 728 mmHg 80%
02:00 +28°C° 1 mm 3 mps 727 mmHg 80%
03:00 +28°C° 1 mm 2 mps 727 mmHg 81%
04:00 +28°C° 0.3 mm 3 mps 727 mmHg 79%
05:00 +28°C° 0.3 mm 3 mps 727 mmHg 78%
06:00 +28°C° 0.3 mm 4 mps 727 mmHg 76%
07:00 +29°C° 0.1 mm 4 mps 728 mmHg 76%
08:00 +29°C° 0.1 mm 4 mps 728 mmHg 76%
09:00 +29°C° 0.1 mm 4 mps 728 mmHg 76%
10:00 +29°C° 0.2 mm 4 mps 728 mmHg 74%
11:00 +29°C° 0.2 mm 4 mps 728 mmHg 73%
12:00 +30°C° 0.2 mm 4 mps 728 mmHg 72%
13:00 +29°C° 0.7 mm 3 mps 728 mmHg 74%
14:00 +29°C° 0.7 mm 3 mps 727 mmHg 76%
15:00 +29°C° 0.7 mm 2 mps 727 mmHg 79%
16:00 +28°C° 0.6 mm 3 mps 727 mmHg 80%
17:00 +28°C° 0.6 mm 4 mps 727 mmHg 81%
18:00 +28°C° 0.6 mm 4 mps 727 mmHg 82%
19:00 +28°C° 0.1 mm 4 mps 727 mmHg 83%
20:00 +28°C° 0.1 mm 4 mps 728 mmHg 84%
21:00 +28°C° 0.1 mm 3 mps 729 mmHg 85%
22:00 +27°C° 0.5 mm 4 mps 729 mmHg 86%
23:00 +27°C° 0.5 mm 4 mps 729 mmHg 87%

19 June, Saturday

Time Temperature Precipitation Wind Pressure Humidity
00:00 +27°C° 0.5 mm 4 mps 729 mmHg 88%
01:00 +27°C° 0.5 mm 4 mps 728 mmHg 88%
02:00 +27°C° 0.5 mm 4 mps 728 mmHg 88%
03:00 +27°C° 0.5 mm 4 mps 727 mmHg 88%
04:00 +27°C° 0.9 mm 5 mps 728 mmHg 86%
05:00 +27°C° 0.9 mm 5 mps 728 mmHg 84%
06:00 +27°C° 0.9 mm 5 mps 728 mmHg 82%
07:00 +27°C° 0.7 mm 5 mps 728 mmHg 83%
08:00 +27°C° 0.7 mm 5 mps 729 mmHg 83%
09:00 +27°C° 0.7 mm 4 mps 729 mmHg 84%
10:00 +29°C° 0.4 mm 6 mps 729 mmHg 77%
11:00 +30°C° 0.4 mm 7 mps 729 mmHg 70%
12:00 +32°C° 0.4 mm 8 mps 729 mmHg 63%
13:00 +30°C° 0.7 mm 7 mps 728 mmHg 68%
14:00 +30°C° 0.7 mm 6 mps 728 mmHg 72%
15:00 +29°C° 0.7 mm 4 mps 728 mmHg 76%
16:00 +29°C° 0.5 mm 5 mps 728 mmHg 76%
17:00 +29°C° 0.5 mm 5 mps 728 mmHg 77%
18:00 +28°C° 0.5 mm 5 mps 728 mmHg 77%
19:00 +28°C° 0.4 mm 5 mps 729 mmHg 79%
20:00 +28°C° 0.4 mm 5 mps 729 mmHg 81%
21:00 +28°C° 0.4 mm 5 mps 730 mmHg 83%
22:00 +27°C° 0.5 mm 5 mps 730 mmHg 84%
23:00 +27°C° 0.5 mm 6 mps 730 mmHg 85%

20 June, Sunday

Time Temperature Precipitation Wind Pressure Humidity
00:00 +27°C° 0.5 mm 7 mps 730 mmHg 85%
01:00 +27°C° 0.2 mm 6 mps 730 mmHg 84%
02:00 +27°C° 0.2 mm 6 mps 729 mmHg 82%
03:00 +27°C° 0.2 mm 6 mps 729 mmHg 81%
04:00 +27°C° 0 mm 5 mps 729 mmHg 81%
05:00 +27°C° 0 mm 5 mps 729 mmHg 81%
06:00 +27°C° 0 mm 5 mps 729 mmHg 80%
07:00 +28°C° 0 mm 5 mps 729 mmHg 79%
08:00 +28°C° 0 mm 5 mps 730 mmHg 77%
09:00 +28°C° 0 mm 5 mps 730 mmHg 75%
10:00 +29°C° 0 mm 5 mps 730 mmHg 73%
11:00 +29°C° 0 mm 5 mps 730 mmHg 72%
12:00 +29°C° 0 mm 6 mps 730 mmHg 70%
13:00 +30°C° 0 mm 6 mps 730 mmHg 69%
14:00 +30°C° 0 mm 5 mps 729 mmHg 68%
15:00 +30°C° 0 mm 5 mps 729 mmHg 67%
16:00 +30°C° 0 mm 5 mps 729 mmHg 68%
17:00 +30°C° 0 mm 5 mps 729 mmHg 69%
18:00 +29°C° 0 mm 5 mps 728 mmHg 70%
19:00 +29°C° 0 mm 4 mps 729 mmHg 71%
20:00 +29°C° 0 mm 4 mps 729 mmHg 73%
21:00 +28°C° 0 mm 3 mps 730 mmHg 75%
22:00 +28°C° 0 mm 4 mps 730 mmHg 76%
23:00 +28°C° 0 mm 4 mps 730 mmHg 78%
Show more

We Need Your Consent

Meteoprog and our Service Providers may store and access personal data such as cookies, device identifiers or other similar technologies on your device and process such data to personalise content and ads, as well as provide social media features and to analyse the traffic.

  • Store and/or access information on your device

    Cookies, device identifiers or other information can be stored or accessed on your device for the purposes indicated above.

  • Personalised ads and content, ad and content measurement, audience insights, and products development

    Ads and content can be personalised based on a profile. More data can be added to better personalise ads and content. Ad and content performance can be measured. Insights about the audience who saw the ads and content can be derived. Such data can be used to develop or improve user’s experience, systems and software.

By clicking ‘I Agree’ you will allow the use of indicated cookies, device identifiers, web beacons or other similar technologies. Your settings can be changed in the browser on your device.

For certain purposes, legitimate interests may be relied on, rather than consent. You can read more about this in our Privacy and Cookie Policy.